Location: Newark
(49.8969°N, 3.3422°E)
Time: 22:53:20
(UTC+00:00)

Vanguard 1 Rocket - Pass Details

Date: 22 January 2020
Orbit: 650 x 4226 km, 34.3° (Epoch: 19 February)

Event Time Altitude Azimuth Distance (km) Brightness Sun altitude
Rises 08:37:43 0° 192° (SSW) 4,075 11.2 7.5°
Reaches altitude 10° 08:41:17 10° 173° (S) 3,563 11.4 7.9°
Maximum altitude 08:47:04 18° 134° (SE) 3,707 13.0 8.6°
Drops below altitude 10° 08:55:12 10° 99° (E) 5,297 12.3 9.5°
Sets 09:02:32 0° 85° (E) 7,079 12.5 10.3°
